TimeEST,TemperatureF,Dew PointF,Humidity,Sea Level PressureIn,VisibilityMPH,Wind Direction,Wind SpeedMPH,Gust SpeedMPH,PrecipitationIn,Events,Conditions,WindDirDegrees,DateUTC
12:53 AM,37.0,30.0,76,29.76,10.0,WSW,12.7,-,0.00,,Overcast,240,2013-02-28 05:53:00
1:26 AM,37.0,28.9,73,29.77,10.0,West,10.4,-,N/A,,Overcast,280,2013-02-28 06:26:00
1:53 AM,36.0,28.0,73,29.76,10.0,West,8.1,-,N/A,,Overcast,260,2013-02-28 06:53:00
2:53 AM,36.0,28.0,73,29.74,9.0,WSW,10.4,-,0.00,Snow,Light Snow,250,2013-02-28 07:53:00
3:11 AM,36.0,28.9,76,29.75,9.0,SW,6.9,-,0.00,Snow,Light Snow,230,2013-02-28 08:11:00
3:53 AM,35.1,30.0,82,29.74,8.0,WSW,13.8,-,0.00,Snow,Light Snow,250,2013-02-28 08:53:00
4:14 AM,35.1,30.0,82,29.75,9.0,West,9.2,-,0.00,Snow,Light Snow,260,2013-02-28 09:14:00
4:53 AM,35.1,30.0,82,29.74,9.0,WSW,10.4,-,0.00,Snow,Light Snow,250,2013-02-28 09:53:00
5:05 AM,35.1,28.9,78,29.76,8.0,WSW,9.2,-,0.00,Snow,Light Snow,250,2013-02-28 10:05:00
5:53 AM,34.0,28.0,79,29.76,5.0,West,9.2,-,0.01,Snow,Light Snow,270,2013-02-28 10:53:00
6:28 AM,33.1,28.9,85,29.78,3.0,West,13.8,-,0.02,Snow,Light Snow,280,2013-02-28 11:28:00
6:53 AM,33.1,28.0,82,29.77,9.0,West,10.4,-,0.03,Snow,Light Snow,270,2013-02-28 11:53:00
7:53 AM,33.1,28.0,82,29.79,2.5,West,9.2,-,0.00,Snow,Light Snow,260,2013-02-28 12:53:00
8:25 AM,33.1,28.0,82,29.80,2.5,West,9.2,-,0.00,Snow,Light Snow,270,2013-02-28 13:25:00
8:53 AM,33.1,28.0,82,29.80,2.5,West,11.5,-,0.00,Snow,Light Snow,260,2013-02-28 13:53:00
9:38 AM,33.1,28.0,82,29.82,6.0,West,10.4,-,0.00,Snow,Light Snow,270,2013-02-28 14:38:00
9:53 AM,33.1,28.9,85,29.81,7.0,West,10.4,-,0.00,Snow,Light Snow,260,2013-02-28 14:53:00
10:53 AM,35.1,26.1,70,29.83,10.0,West,15.0,-,0.00,,Overcast,270,2013-02-28 15:53:00
11:11 AM,34.0,25.0,70,29.84,10.0,West,13.8,27.6,N/A,,Overcast,270,2013-02-28 16:11:00
11:53 AM,36.0,26.1,67,29.83,10.0,WSW,13.8,23.0,N/A,,Mostly Cloudy,250,2013-02-28 16:53:00
12:53 PM,37.0,24.1,59,29.83,10.0,WNW,13.8,-,N/A,,Overcast,290,2013-02-28 17:53:00
1:53 PM,36.0,24.1,62,29.83,10.0,West,13.8,-,N/A,,Overcast,280,2013-02-28 18:53:00
2:53 PM,36.0,24.1,62,29.84,10.0,West,13.8,-,N/A,,Overcast,260,2013-02-28 19:53:00
3:53 PM,36.0,24.1,62,29.85,10.0,West,13.8,-,N/A,,Overcast,260,2013-02-28 20:53:00
4:53 PM,35.1,24.1,64,29.88,10.0,West,11.5,-,N/A,,Overcast,270,2013-02-28 21:53:00
5:53 PM,35.1,24.1,64,29.91,10.0,West,16.1,-,N/A,,Overcast,270,2013-02-28 22:53:00
6:13 PM,35.1,24.1,64,29.91,10.0,WSW,12.7,-,N/A,,Overcast,250,2013-02-28 23:13:00
6:53 PM,34.0,24.1,67,29.92,10.0,West,11.5,-,N/A,,Overcast,270,2013-02-28 23:53:00
7:53 PM,34.0,25.0,70,29.92,10.0,West,16.1,-,N/A,,Overcast,260,2013-03-01 00:53:00
8:53 PM,34.0,26.1,73,29.92,10.0,West,11.5,-,0.00,Snow,Light Snow,260,2013-03-01 01:53:00
9:53 PM,34.0,26.1,73,29.94,9.0,West,8.1,-,0.00,Snow,Light Snow,280,2013-03-01 02:53:00
10:53 PM,33.1,26.1,75,29.94,9.0,West,11.5,-,0.00,Snow,Light Snow,270,2013-03-01 03:53:00
11:53 PM,33.1,28.0,82,29.93,8.0,West,8.1,-,0.00,Snow,Light Snow,270,2013-03-01 04:53:00